This is the latest recevied weather packets stored in our database for station/object W7BL. If no packets are shown the sender has not sent any weather packets the latest 10 day(s).
| Time | Temp. | Humidity | Pressure | Rain* | Wind** | Luminosity | Snow |
|---|---|---|---|---|---|---|---|
| 1777880751 | 11.67° C | 65% | - | 0 mm | - | - | - |
| 1777880449 | 11.67° C | 64% | - | 0 mm | - | - | - |
| 1777880147 | 12.22° C | 62% | - | 0 mm | - | - | - |
| 1777879845 | 12.22° C | 62% | - | 0 mm | - | - | - |
| 1777879543 | 12.22° C | 62% | - | 0 mm | - | - | - |
| 1777879239 | 12.22° C | 63% | - | 0 mm | - | - | - |
| 1777878936 | 12.22° C | 64% | - | 0 mm | - | - | - |
| 1777878633 | 12.22° C | 64% | - | 0 mm | - | - | - |
| 1777878331 | 12.22° C | 63% | - | 0 mm | - | - | - |
| 1777878026 | 12.22° C | 64% | - | 0 mm | - | - | - |
| 1777877723 | 12.78° C | 62% | - | 0 mm | - | - | - |
| 1777877420 | 12.78° C | 63% | - | 0 mm | - | - | - |
| 1777877117 | 12.78° C | 63% | - | 0 mm | - | - | - |
| 1777876815 | 12.78° C | 63% | - | 0 mm | - | - | - |
| 1777876512 | 12.78° C | 61% | - | 0 mm | - | - | - |
| 1777876209 | 13.33° C | 60% | - | 0 mm | - | - | - |
| 1777875905 | 13.33° C | 58% | - | 0 mm | - | - | - |
| 1777875601 | 13.89° C | 60% | - | 0 mm | - | - | - |
| 1777875298 | 13.89° C | 57% | - | 0 mm | - | - | - |
| 1777874995 | 14.44° C | 56% | - | 0 mm | - | - | - |
| 1777874690 | 14.44° C | 58% | - | 0 mm | - | - | - |
| 1777874387 | 13.89° C | 60% | - | 0 mm | - | - | - |
| 1777874085 | 13.89° C | 60% | - | 0 mm | - | - | - |
| 1777873783 | 13.89° C | 61% | - | 0 mm | - | - | - |
| 1777873479 | 13.89° C | 60% | - | 0 mm | - | - | - |
* Rain latest hour (hover to see other rain measurements)
** Current wind speed in m/s (hover to see current wind gust speed)